Location: San Antonio
(29.4240°N, 98.4930°W)
Time: 10:51:27
(UTC-06:00)

Transit 4A - Pass Details

Date: 16 December 2025
Orbit: 867 x 974 km, 66.8° (Epoch: 17 January)

Event Time Altitude Azimuth Distance (km) Brightness Sun altitude
Exits shadow 05:21:32 26° 216° (SW) 1,780 9.1 -25.4°
Drops below altitude 10° 05:24:47 10° 191° (S) 2,677 10.3 -24.7°
Sets 05:27:36 0° 181° (S) 3,632 11.2 -24.1°
